This is the latest recevied weather packets stored in our database for station/object KC1OEK-13. If no packets are shown the sender has not sent any weather packets the latest 10 day(s).
| Time | Temp. | Humidity | Pressure | Rain* | Wind** | Luminosity | Snow |
|---|---|---|---|---|---|---|---|
| 1777454325 | 6.11° C | 88% | 1018.9 hPa | 0 mm | - | 0 W/m² | - |
| 1777454022 | 6.11° C | 88% | 1018.8 hPa | 0 mm | - | 0 W/m² | - |
| 1777453719 | 6.11° C | 88% | 1018.8 hPa | 0 mm | - | 0 W/m² | - |
| 1777453417 | 6.11° C | 88% | 1018.7 hPa | 0 mm | - | 0 W/m² | - |
| 1777453113 | 5.56° C | 88% | 1018.7 hPa | 0 mm | - | 0 W/m² | - |
| 1777452810 | 6.11° C | 87% | 1018.8 hPa | 0 mm | - | 0 W/m² | - |
| 1777452506 | 6.11° C | 87% | 1018.8 hPa | 0 mm | - | 0 W/m² | - |
| 1777452203 | 6.11° C | 87% | 1018.8 hPa | 0 mm | - | 0 W/m² | - |
| 1777451902 | 6.11° C | 86% | 1018.8 hPa | 0 mm | - | 0 W/m² | - |
| 1777451600 | 6.11° C | 85% | 1018.6 hPa | 0 mm | - | 0 W/m² | - |
| 1777451295 | 6.67° C | 85% | 1018.4 hPa | 0 mm | - | 0 W/m² | - |
| 1777450991 | 6.67° C | 85% | 1018.3 hPa | 0 mm | - | 0 W/m² | - |
| 1777450687 | 6.67° C | 85% | 1018.2 hPa | 0 mm | - | 0 W/m² | - |
| 1777450383 | 7.22° C | 84% | 1018.4 hPa | 0 mm | - | 0 W/m² | - |
| 1777450080 | 7.22° C | 84% | 1018.4 hPa | 0 mm | - | 0 W/m² | - |
| 1777449775 | 7.22° C | 84% | 1018.4 hPa | 0 mm | - | 0 W/m² | - |
| 1777449472 | 7.78° C | 83% | 1018.4 hPa | 0 mm | - | 0 W/m² | - |
| 1777449168 | 7.78° C | 83% | 1018.5 hPa | 0 mm | - | 0 W/m² | - |
| 1777448257 | 7.78° C | 82% | 1018.6 hPa | 0 mm | - | 0 W/m² | - |
| 1777447953 | 7.78° C | 82% | 1018.7 hPa | 0 mm | - | 0 W/m² | - |
| 1777447649 | 7.22° C | 82% | 1018.6 hPa | 0 mm | - | 0 W/m² | - |
| 1777447346 | 7.22° C | 81% | 1018.7 hPa | 0 mm | - | 0 W/m² | - |
| 1777447043 | 7.78° C | 81% | 1018.8 hPa | 0 mm | - | 0 W/m² | - |
| 1777446741 | 7.78° C | 80% | 1018.9 hPa | 0 mm | - | 0 W/m² | - |
| 1777446437 | 7.78° C | 80% | 1018.8 hPa | 0 mm | - | 0 W/m² | - |
* Rain latest hour (hover to see other rain measurements)
** Current wind speed in m/s (hover to see current wind gust speed)